Wind_Speed
10 10 12 12 12 12 11 11 11 10 10 10 9 9 9 9 9 9 9 9 9 8 7 7 7 7 7 7 7 7 6 6 6 7 7 6 7 7 7 6 6 7 7
12 12 13 13 13 13 13 12 12 11 11 11 10 10 10 10 10 10 10 10 10 10 9 8 8 8 8 8 8 7 7 7 7 7 7 7 8 8 7 7 7 7 8
14 15 15 14 14 14 13 13 13 12 12 11 11 11 11 11 11 11 11 11 11 11 11 10 9 9 9 9 9 9 8 8 8 8 8 8 8 9 8 8 8 8 9
15 15 15 15 15 14 13 13 13 13 12 12 12 12 12 13 12 12 12 12 12 12 11 11 11 10 10 10 10 10 10 10 9 9 8 8 9 9 9 8 8 9 9
16 16 16 16 15 15 15 14 14 13 13 13 13 13 13 13 13 13 13 13 13 13 12 12 11 11 11 10 10 10 11 11 11 10 10 10 10 10 10 9 9 9 10
17 17 16 15 15 16 15 14 14 14 14 14 14 13 14 14 14 14 14 14 14 13 14 13 13 12 12 12 12 12 12 12 12 11 11 11 11 11 11 10 10 11 11
17 17 16 16 16 15 15 15 15 14 14 14 14 15 15 15 15 15 15 15 15 14 14 14 14 14 13 13 13 14 13 13 13 13 13 12 12 12 11 11 12 12 12
17 15 15 16 16 15 15 15 15 15 15 14 14 15 15 16 16 16 16 16 16 16 15 15 15 15 15 14 14 14 15 14 14 14 15 13 12 12 12 13 13 13 13
18 17 15 15 16 15 15 16 16 15 15 15 16 16 16 16 17 17 17 17 16 16 16 16 16 16 16 15 15 16 16 15 15 15 15 14 14 13 13 13 13 13 13
18 17 16 16 16 16 16 16 16 16 15 15 16 16 16 17 17 18 17 18 18 17 17 17 17 17 17 16 17 17 16 15 16 15 14 14 14 14 14 13 14 14 14
18 16 17 17 16 16 17 17 17 17 16 16 16 16 16 17 18 18 17 18 18 18 18 18 18 18 18 17 17 17 17 16 16 16 15 14 14 15 15 15 15 15 16
17 17 17 18 17 17 17 17 17 17 17 17 17 17 17 17 18 18 18 18 18 19 19 19 19 19 19 19 19 19 19 18 18 17 17 16 16 16 17 17 16 16 17
17 18 18 18 18 18 17 18 18 17 17 17 18 17 17 18 18 19 19 19 19 20 20 20 20 20 20 19 20 20 21 20 19 19 18 18 18 18 18 19 18 18 18
17 17 19 18 18 19 19 18 17 17 18 18 18 19 19 19 19 20 20 20 20 20 21 21 21 21 21 21 20 21 21 22 21 21 20 20 20 20 19 19 19 19 19
16 18 19 18 18 18 19 19 18 19 19 19 19 19 19 20 20 20 20 20 20 21 22 22 22 22 23 23 21 22 23 23 23 23 23 22 22 21 20 20 19 19 19
18 19 20 19 18 18 19 18 18 18 18 18 18 19 19 20 20 20 20 21 21 21 22 23 23 24 24 24 23 24 24 24 24 23 23 22 23 23 22 21 20 20 20
18 19 19 20 19 18 18 18 17 18 18 19 18 19 20 20 19 19 20 21 21 22 22 23 24 25 24 25 24 24 24 24 24 24 23 22 23 23 23 23 22 22 21
19 19 20 20 19 18 18 18 18 18 18 18 18 19 19 20 20 20 20 21 22 23 23 24 24 25 25 25 25 25 25 24 25 23 24 24 23 23 23 23 23 22 22
19 20 20 20 19 19 18 18 18 18 18 19 19 19 20 22 22 22 22 22 23 23 23 24 25 25 25 25 26 26 25 25 24 24 24 25 25 25 24 24 24 23 23
19 20 19 19 19 18 18 18 19 19 19 20 19 20 21 22 23 22 23 23 24 23 23 23 24 24 24 24 24 25 26 26 25 26 26 26 26 26 26 26 25 25 25
20 20 19 19 18 18 18 18 19 20 19 19 19 20 21 22 22 22 22 22 23 23 23 23 23 23 24 24 25 25 25 26 26 26 28 28 26 27 27 27 26 25 25
20 19 19 18 18 19 19 19 19 19 19 19 20 20 21 22 22 22 21 22 22 22 22 22 23 23 23 23 24 25 25 25 25 26 26 26 26 26 26 26 26 26 25
19 19 19 19 18 19 19 19 19 19 20 20 20 21 21 22 21 22 22 22 23 23 23 24 24 24 24 24 24 25 25 24 23 25 25 25 26 26 27 27 26 26 26
19 18 19 19 19 19 19 19 19 20 20 20 21 21 22 22 23 23 23 23 24 24 25 25 24 24 25 25 25 25 25 25 26 26 26 26 27 28 28 28 27 27 28
18 18 19 19 19 19 19 19 20 20 21 21 21 22 22 23 23 23 22 23 24 24 24 24 24 25 25 25 25 25 26 26 27 27 27 28 28 27 27 27 27 28 28
18 19 20 19 19 19 19 20 20 20 21 21 21 22 22 22 22 23 23 23 23 23 23 23 24 25 26 25 25 25 25 26 27 28 28 27 28 28 27 28 27 27 29
Wind_Direction
306 305 299 297 298 296 290 286 285 282 279 273 270 268 266 259 252 247 240 239 239 237 237 237 237 236 236 238 241 241 241 245 246 244 248 250 252 251 248 249 245 239 239
302 302 299 296 295 293 291 289 282 280 277 272 268 264 261 259 254 247 242 240 240 239 238 239 240 241 242 244 245 246 246 248 249 249 251 254 253 249 244 246 246 238 237
302 301 298 296 294 292 290 289 284 279 275 271 267 264 260 258 256 251 249 244 243 242 240 240 240 242 245 248 248 248 248 249 248 249 253 254 252 248 241 240 243 239 240
299 299 297 294 290 289 290 288 284 281 275 271 269 267 264 259 257 256 253 250 247 245 244 243 242 243 244 247 249 249 249 248 248 250 254 253 251 248 244 242 243 243 244
300 300 298 295 289 285 286 287 283 281 278 273 270 269 268 266 261 257 255 252 251 246 245 247 244 242 242 244 247 249 251 250 249 251 254 252 248 249 249 248 247 247 246
301 298 297 293 291 288 286 285 284 283 278 273 269 268 268 268 265 259 255 253 252 249 245 247 245 245 244 245 247 249 250 251 251 252 254 255 253 252 251 250 249 248 247
301 296 293 293 291 288 287 287 283 281 277 276 272 270 268 267 265 262 259 256 253 251 247 246 246 245 248 249 250 250 251 251 251 253 255 254 255 255 254 253 252 247 245
299 301 296 292 289 288 287 289 284 280 275 275 276 273 269 268 266 265 263 260 256 252 248 246 245 247 250 252 253 252 253 252 252 254 256 259 258 256 255 255 254 246 245
301 301 297 292 289 288 288 289 288 283 278 277 277 275 270 267 267 265 263 260 258 255 251 249 247 247 250 251 252 253 253 252 252 256 255 256 259 258 257 255 254 250 251
300 301 297 293 292 290 288 288 288 284 280 280 278 274 271 269 269 267 267 262 257 256 254 252 252 251 250 251 256 251 249 252 254 254 255 256 256 257 257 255 252 252 252
304 304 300 297 299 293 289 287 288 285 283 283 280 275 273 272 270 268 268 263 258 256 254 253 252 252 251 251 254 251 251 252 255 254 255 255 256 257 256 254 253 252 252
307 305 302 299 295 292 290 288 288 284 282 280 280 275 273 272 270 268 269 267 261 258 257 256 255 254 253 253 255 253 253 254 255 256 256 255 256 258 258 256 257 255 254
309 305 304 302 298 292 290 290 286 280 281 280 280 280 277 274 272 271 271 271 267 264 261 258 256 255 255 256 255 254 253 255 256 256 255 254 255 256 257 257 256 255 255
307 306 309 304 300 295 292 292 286 282 283 283 283 282 280 278 275 272 272 273 270 266 262 259 258 258 258 257 256 256 254 256 256 256 256 254 254 254 256 255 256 256 256
310 309 308 306 301 296 295 294 289 285 284 283 284 285 283 283 279 276 276 276 273 268 265 263 261 260 259 259 258 258 258 257 258 258 257 255 253 253 254 255 257 257 256
313 311 310 307 303 297 294 292 290 290 289 286 285 285 284 285 284 282 279 277 274 271 271 268 265 262 261 259 259 260 260 259 258 258 256 253 252 253 255 255 256 256 257
313 312 312 311 308 303 295 292 288 292 291 287 283 284 286 288 287 285 283 280 278 276 275 272 268 265 263 261 260 260 260 260 262 258 255 256 254 252 254 254 255 254 254
314 314 314 313 312 308 300 295 296 296 294 291 286 286 288 289 289 288 286 282 280 277 275 274 272 268 266 264 263 262 261 262 264 259 256 255 254 253 254 254 254 254 255
314 313 312 311 311 309 304 300 299 298 295 294 290 288 290 290 288 286 284 283 283 280 276 274 274 272 268 266 264 263 263 262 262 261 259 257 257 257 256 254 254 255 256
313 313 312 312 311 311 308 303 300 298 297 295 293 288 290 291 290 287 285 284 284 281 277 276 277 274 270 267 265 264 263 263 261 261 260 258 258 258 256 253 254 256 257
314 315 313 314 314 313 309 307 301 300 301 300 298 294 293 294 293 293 290 287 286 282 280 279 278 276 273 268 265 264 264 264 261 262 261 259 258 258 258 255 255 256 256
319 317 317 316 315 313 310 309 305 302 301 301 300 297 295 294 294 293 291 290 289 285 282 282 281 278 275 271 267 265 265 262 261 261 260 257 256 257 258 257 257 256 256
321 321 322 320 317 313 309 307 307 303 302 302 302 299 297 296 294 291 290 290 289 285 283 283 281 278 275 271 268 266 264 261 260 262 264 261 259 258 259 258 258 257 257
325 323 324 323 319 315 312 309 307 305 303 301 302 302 300 296 294 292 291 290 289 286 285 283 280 278 276 272 270 268 265 263 261 263 264 264 262 259 259 259 258 258 256
324 324 325 324 321 318 315 312 307 304 304 301 301 301 301 299 296 294 292 292 291 289 286 283 280 277 275 272 270 268 265 264 263 262 262 263 262 260 259 259 259 257 256
325 325 326 325 321 318 316 313 308 306 306 304 303 303 303 302 300 298 296 294 292 290 288 286 282 278 274 270 269 268 267 267 265 263 262 262 261 261 260 260 260 258 258
Height
5876 5875 5874 5874 5873 5872 5872 5871 5871 5870 5869 5869 5869 5868 5868 5869 5869 5869 5869 5869 5870 5870 5870 5871 5871 5872 5872 5872 5873 5873 5874 5874 5874 5875 5876 5876 5877 5877 5878 5878 5879 5880 5881
5874 5873 5872 5872 5871 5870 5869 5869 5868 5868 5868 5867 5866 5866 5867 5867 5867 5867 5867 5867 5868 5868 5869 5869 5870 5870 5871 5871 5871 5872 5872 5873 5873 5874 5874 5875 5875 5876 5876 5877 5878 5879 5879
5872 5871 5870 5869 5869 5868 5867 5866 5866 5866 5865 5865 5864 5864 5865 5865 5865 5865 5865 5865 5866 5866 5867 5867 5868 5868 5869 5870 5870 5870 5871 5871 5872 5872 5872 5873 5874 5874 5874 5875 5876 5877 5878
5870 5869 5868 5867 5866 5865 5865 5864 5864 5863 5863 5863 5862 5862 5862 5862 5863 5863 5863 5863 5864 5864 5864 5865 5866 5866 5867 5868 5868 5869 5869 5870 5870 5870 5871 5872 5872 5872 5873 5874 5874 5875 5876
5868 5867 5865 5864 5864 5863 5862 5862 5861 5861 5860 5860 5860 5860 5860 5860 5860 5860 5861 5861 5861 5862 5862 5863 5863 5864 5865 5866 5866 5867 5867 5868 5868 5868 5869 5869 5870 5871 5871 5872 5872 5873 5874
5865 5864 5863 5861 5861 5860 5859 5859 5858 5858 5858 5858 5858 5857 5858 5858 5858 5858 5858 5858 5859 5859 5859 5860 5861 5861 5862 5863 5863 5864 5865 5865 5866 5866 5867 5867 5868 5869 5869 5870 5871 5871 5872
5862 5859 5859 5858 5857 5857 5856 5855 5855 5855 5855 5854 5855 5855 5855 5855 5855 5855 5855 5856 5856 5856 5856 5857 5858 5858 5859 5859 5860 5861 5862 5863 5863 5864 5865 5866 5866 5867 5867 5868 5869 5869 5870
5858 5854 5854 5854 5854 5853 5853 5852 5851 5851 5851 5851 5851 5852 5851 5851 5852 5852 5852 5852 5853 5853 5853 5854 5854 5855 5856 5856 5856 5857 5858 5859 5861 5862 5862 5863 5864 5864 5865 5865 5866 5867 5867
5854 5852 5852 5851 5850 5850 5849 5849 5848 5848 5848 5848 5848 5848 5848 5848 5848 5848 5848 5849 5849 5850 5850 5851 5851 5852 5853 5853 5853 5855 5855 5856 5857 5859 5859 5861 5861 5862 5862 5862 5863 5864 5865
5850 5849 5849 5848 5846 5846 5846 5846 5845 5845 5845 5845 5844 5844 5844 5844 5845 5844 5845 5845 5845 5846 5847 5847 5848 5849 5849 5850 5850 5851 5852 5853 5854 5856 5857 5858 5858 5859 5859 5860 5861 5862 5863
5847 5846 5845 5844 5842 5842 5842 5842 5842 5841 5841 5841 5841 5841 5841 5841 5841 5841 5841 5841 5841 5842 5843 5843 5844 5845 5846 5846 5847 5848 5849 5850 5851 5852 5853 5855 5855 5856 5856 5857 5858 5859 5859
5844 5843 5842 5841 5839 5838 5839 5838 5838 5837 5838 5838 5838 5837 5837 5837 5837 5837 5837 5837 5837 5838 5839 5839 5840 5841 5842 5843 5843 5844 5846 5846 5847 5848 5850 5851 5852 5852 5853 5854 5854 5855 5856
5843 5841 5840 5838 5836 5836 5835 5834 5833 5833 5833 5834 5834 5834 5833 5833 5833 5833 5833 5833 5834 5834 5835 5836 5836 5837 5838 5839 5840 5840 5841 5842 5844 5844 5846 5847 5848 5848 5849 5850 5851 5852 5852
5840 5839 5837 5835 5833 5832 5831 5830 5829 5829 5829 5829 5830 5830 5829 5829 5829 5829 5830 5830 5830 5830 5831 5831 5832 5833 5834 5834 5835 5836 5837 5838 5839 5839 5841 5842 5843 5844 5845 5846 5847 5847 5848
5837 5836 5834 5832 5830 5829 5828 5826 5826 5825 5826 5826 5826 5826 5825 5825 5825 5825 5825 5825 5826 5826 5826 5827 5827 5828 5829 5830 5830 5831 5832 5833 5834 5834 5835 5837 5838 5839 5840 5841 5842 5843 5844
5835 5833 5831 5829 5828 5826 5825 5823 5823 5822 5822 5822 5822 5821 5821 5821 5821 5820 5820 5820 5821 5821 5821 5821 5822 5823 5823 5824 5825 5826 5826 5827 5828 5828 5829 5831 5832 5834 5835 5836 5837 5838 5839
5833 5831 5829 5827 5825 5823 5821 5820 5819 5819 5818 5818 5818 5817 5817 5817 5817 5816 5816 5816 5816 5815 5815 5816 5816 5817 5817 5818 5819 5820 5820 5821 5822 5822 5824 5825 5826 5828 5829 5831 5832 5833 5834
5830 5828 5826 5824 5822 5820 5818 5817 5816 5816 5815 5814 5814 5814 5813 5813 5812 5811 5811 5810 5810 5810 5810 5810 5810 5810 5811 5812 5813 5813 5814 5815 5816 5817 5818 5819 5820 5822 5824 5825 5826 5827 5829
5828 5825 5823 5821 5819 5817 5815 5814 5813 5813 5812 5810 5810 5809 5809 5808 5807 5806 5806 5805 5805 5804 5804 5804 5804 5804 5805 5805 5806 5807 5808 5809 5809 5811 5812 5813 5814 5816 5817 5819 5820 5821 5823
5825 5822 5820 5818 5816 5814 5812 5811 5810 5809 5808 5807 5806 5805 5804 5803 5802 5801 5801 5800 5799 5799 5799 5798 5798 5798 5798 5799 5799 5800 5801 5802 5803 5805 5806 5806 5808 5810 5811 5813 5814 5815 5816
5822 5819 5817 5815 5813 5811 5809 5808 5806 5805 5804 5803 5801 5800 5799 5798 5797 5796 5795 5794 5794 5793 5793 5793 5792 5792 5792 5792 5793 5794 5795 5796 5797 5797 5798 5800 5801 5803 5804 5806 5807 5808 5810
5819 5816 5814 5812 5810 5808 5806 5804 5802 5801 5800 5798 5797 5796 5794 5793 5792 5791 5790 5789 5788 5788 5787 5787 5786 5785 5785 5786 5786 5787 5788 5790 5790 5790 5791 5792 5794 5796 5798 5799 5800 5802 5803
5816 5813 5811 5808 5806 5804 5802 5800 5798 5797 5796 5794 5793 5791 5790 5788 5787 5786 5785 5784 5783 5782 5781 5780 5779 5779 5779 5779 5779 5780 5781 5782 5783 5784 5784 5785 5787 5789 5791 5792 5793 5794 5796
5813 5810 5807 5805 5802 5800 5797 5796 5794 5792 5791 5790 5788 5787 5785 5783 5782 5780 5779 5778 5777 5775 5774 5773 5773 5772 5772 5772 5772 5773 5774 5775 5776 5777 5778 5779 5780 5782 5783 5785 5786 5787 5788
5810 5808 5805 5802 5799 5796 5794 5792 5790 5788 5787 5785 5783 5782 5780 5778 5776 5775 5773 5772 5771 5769 5768 5767 5766 5765 5764 5765 5765 5765 5766 5767 5768 5769 5771 5772 5773 5774 5776 5777 5778 5779 5780
5808 5805 5802 5799 5796 5793 5790 5788 5786 5784 5782 5780 5778 5776 5775 5773 5771 5769 5768 5766 5764 5763 5761 5760 5759 5758 5757 5757 5757 5758 5758 5760 5761 5762 5763 5764 5765 5766 5768 5769 5770 5771 5772